"2009-11-26 00:00:00",1448926,4.594,233.7,5.685,1.074,8.56,101.4839,3.086,4.399,49.56,0,109.7,13.51,3.85,195.7
"2009-11-26 00:00:30",1448927,4.72,232.9,4.848,1.067,8.72,101.4836,3.085,4.401,49.6,0,109.7,13.5,3.85,194.9
"2009-11-26 00:01:00",1448928,3.638,225.1,6.526,1.23,6.368,101.4856,3.09,4.255,49.52,0,109.7,13.51,3.85,187.1
"2009-11-26 00:01:30",1448929,3.301,223.7,5.339,1.082,5.428,101.4853,3.089,4.262,49.52,0,109.7,13.5,3.85,185.7
"2009-11-26 00:02:00",1448930,3.069,222.1,5.041,0.94,5.121,101.4887,3.098,4.26,49.56,0,109.7,13.51,3.86,184.1
"2009-11-26 00:02:30",1448931,3.206,220.3,5.238,1.096,4.97,101.4902,3.102,4.19,49.52,0,109.7,13.51,3.86,182.3
"2009-11-26 00:03:00",1448932,3.747,222.9,6.691,1.216,6.855,101.486,3.091,4.252,49.61,0,109.7,13.51,3.85,184.9
"2009-11-26 00:03:30",1448933,4.591,227.2,5.818,1.061,8.2,101.4795,3.074,4.375,49.7,0,109.7,13.51,3.84,189.2
"2009-11-26 00:04:00",1448934,4.857,228.5,4.775,0.954,8.55,101.4749,3.063,4.359,49.72,0,109.7,13.51,3.83,190.5
"2009-11-26 00:04:30",1448935,3.805,222.7,6.575,1.249,6.478,101.4662,3.04,4.272,49.67,0,109.7,13.5,3.80,184.7
"2009-11-26 00:05:00",1448936,3.899,221.6,6.422,1.256,6.282,101.4608,3.027,4.241,49.62,0,109.7,13.5,3.79,183.6
"2009-11-26 00:05:30",1448937,3.386,218.6,5.445,1.071,5.87,101.4591,3.022,4.253,49.63,0,109.7,13.5,3.78,180.6
"2009-11-26 00:06:00",1448938,4.29,221.9,6.456,1.221,7.635,101.4591,3.022,4.217,49.59,0,109.7,13.5,3.78,183.9
"2009-11-26 00:06:30",1448939,4.568,223.2,5.909,1.116,8.29,101.4591,3.022,4.317,49.7,0,109.7,13.5,3.78,185.2
"2009-11-26 00:07:00",1448940,4.876,226,5.063,1.03,8.64,101.4591,3.022,4.35,49.73,0,109.7,13.5,3.78,188.0
"2009-11-26 00:07:30",1448941,3.986,221.8,6.059,1.232,6.291,101.4591,3.022,4.175,49.57,0,109.7,13.5,3.78,183.8
"2009-11-26 00:08:00",1448942,3.86,223.7,6.749,1.2,6.121,101.4591,3.022,4.144,49.57,0,109.7,13.5,3.78,185.7
"2009-11-26 00:08:30",1448943,3.797,224.4,6.582,1.194,6.348,101.4591,3.022,4.217,49.68,0,109.7,13.51,3.78,186.4
"2009-11-26 00:09:00",1448944,3.703,225.4,6.012,1.15,6.539,101.4591,3.022,4.267,49.75,0,109.7,13.51,3.78,187.4
"2009-11-26 00:09:30",1448945,4.792,229.6,5.91,1.08,8.2,101.4591,3.022,4.23,49.75,0,109.7,13.51,3.78,191.6
"2009-11-26 00:10:00",1448946,4.833,229.2,5.371,1.021,8.66,101.4591,3.022,4.322,49.83,0,109.7,13.51,3.78,191.2
"2009-11-26 00:10:30",1448947,4.222,226,6.384,1.255,7.443,101.4594,3.023,4.313,49.86,0,109.7,13.51,3.79,188.0
"2009-11-26 00:11:00",1448948,3.778,222.9,6.164,1.231,6.192,101.4588,3.022,4.128,49.68,0,109.7,13.51,3.78,184.9
"2009-11-26 00:11:30",1448949,3.37,219.8,6.546,1.126,5.985,101.4569,3.017,4.202,49.78,0,109.7,13.51,3.78,181.8
"2009-11-26 00:12:00",1448950,3.714,220.1,6.38,1.222,6.275,101.4589,3.022,4.113,49.69,0,109.7,13.51,3.78,182.1
"2009-11-26 00:12:30",1448951,3.809,219.9,6.203,1.253,6.914,101.454,3.009,4.213,49.78,0,109.7,13.52,3.77,181.9
"2009-11-26 00:13:00",1448952,4.466,221.5,6.228,1.139,8.09,101.4549,3.012,4.312,49.94,0,109.7,13.52,3.77,183.5
"2009-11-26 00:13:30",1448953,4.701,223.3,6.058,1.058,8.48,101.4575,3.018,4.274,49.88,0,109.7,13.52,3.78,185.3
"2009-11-26 00:14:00",1448954,3.261,218.4,5.385,0.943,5.63,101.4587,3.021,4.268,49.9,0,109.7,13.52,3.78,180.4
"2009-11-26 00:14:30",1448955,3.909,223.2,6.04,1.266,6.073,101.4584,3.021,4.098,49.73,0,109.7,13.52,3.78,185.2
"2009-11-26 00:15:00",1448956,4.174,224.4,6.779,1.252,7.111,101.4596,3.024,4.283,49.92,0,109.7,13.52,3.79,186.4
"2009-11-26 00:15:30",1448957,4.078,224.2,5.591,1.207,6.766,101.4633,3.033,4.136,49.77,0,109.7,13.52,3.80,186.2
"2009-11-26 00:16:00",1448958,3.78,223.3,6.31,1.106,6.783,101.4687,3.047,4.286,49.9,0,109.7,13.52,3.81,185.3
"2009-11-26 00:16:30",1448959,5.054,231.6,5.965,1.032,8.46,101.4713,3.054,4.296,49.92,0,109.7,13.52,3.82,193.6
"2009-11-26 00:17:00",1448960,4.585,230.8,6.324,1.215,7.153,101.4739,3.06,4.26,49.87,0,109.7,13.52,3.82,192.8
"2009-11-26 00:17:30",1448961,3.564,228,5.475,0.887,5.532,101.477,3.068,4.21,49.79,0,109.7,13.52,3.83,190.0
"2009-11-26 00:18:00",1448962,4.978,236.2,5.947,1.159,7.844,101.4776,3.07,4.188,49.73,0,109.7,13.52,3.83,198.2
"2009-11-26 00:18:30",1448963,3.697,231.2,5.489,0.942,6.062,101.4816,3.08,4.21,49.75,0,109.7,13.53,3.84,193.2
"2009-11-26 00:19:00",1448964,4.56,235.8,6.723,1.26,7.107,101.487,3.093,4.115,49.64,0,109.7,13.52,3.86,197.8
"2009-11-26 00:19:30",1448965,4.514,234.9,6.427,1.27,7.716,101.489,3.099,4.322,49.82,0,109.7,13.53,3.86,196.9
"2009-11-26 00:20:00",1448966,4.888,237.9,6.356,1.149,8.42,101.4872,3.094,4.296,49.81,0,109.7,13.52,3.86,199.9
"2009-11-26 00:20:30",1448967,4.397,236.8,6.536,1.245,6.998,101.4904,3.102,4.216,49.72,0,109.7,13.52,3.87,198.8
"2009-11-26 00:21:00",1448968,3.381,235.2,4.949,0.876,5.691,101.491,3.104,4.267,49.78,0,109.7,13.52,3.87,197.2
"2009-11-26 00:21:30",1448969,4.084,239.7,5.834,1.188,6.186,101.4912,3.104,4.166,49.64,0,109.7,13.52,3.87,201.7
"2009-11-26 00:22:00",1448970,4.752,243.3,5.913,1.185,7.812,101.4924,3.107,4.29,49.79,0,109.7,13.52,3.87,205.3
"2009-11-26 00:22:30",1448971,4.393,241.3,6.299,1.296,7.135,101.4933,3.11,4.275,49.78,0,109.7,13.52,3.87,203.3
"2009-11-26 00:23:00",1448972,4.731,239.6,6.274,1.197,7.138,101.4935,3.11,4.311,49.78,0,109.7,13.52,3.87,201.6
"2009-11-26 00:23:30",1448973,4.993,240.9,5.803,1.205,8.17,101.4935,3.11,4.324,49.78,0,109.7,13.52,3.87,202.9
"2009-11-26 00:24:00",1448974,4.692,237,6.203,1.246,6.832,101.4935,3.11,4.258,49.7,0,109.7,13.52,3.87,199.0
"2009-11-26 00:24:30",1448975,4.437,236.1,6.15,1.22,6.699,101.4935,3.11,4.262,49.69,0,109.7,13.52,3.87,198.1
"2009-11-26 00:25:00",1448976,4.555,235.6,6.107,1.225,6.869,101.4935,3.11,4.295,49.7,0,109.7,13.52,3.87,197.6
"2009-11-26 00:25:30",1448977,4.666,235.8,6.287,1.258,6.58,101.4938,3.111,4.301,49.72,0,109.7,13.52,3.87,197.8
"2009-11-26 00:26:00",1448978,5.336,239.6,5.936,1.13,8.34,101.4967,3.118,4.378,49.76,0,109.7,13.53,3.88,201.6
"2009-11-26 00:26:30",1448979,5.317,239,5.871,1.187,7.973,101.5046,3.138,4.407,49.75,0,109.7,13.53,3.90,201.0
"2009-11-26 00:27:00",1448980,5.002,238.1,6.35,1.226,7.75,101.5117,3.156,4.388,49.67,0,109.7,13.53,3.92,200.1
"2009-11-26 00:27:30",1448981,4.293,233.3,6.22,1.11,5.813,101.5179,3.172,4.238,49.45,0,109.7,13.53,3.94,195.3
"2009-11-26 00:28:00",1448982,5.063,236.9,5.893,1.201,7.983,101.5204,3.179,4.355,49.51,0,109.7,13.53,3.94,198.9
"2009-11-26 00:28:30",1448983,3.706,229.3,3.284,0.764,5.105,101.5244,3.189,4.259,49.36,0,109.7,13.53,3.95,191.3
"2009-11-26 00:29:00",1448984,5.295,236.7,5.214,1.082,8.16,101.5275,3.197,4.413,49.46,0,109.7,13.53,3.96,198.7
"2009-11-26 00:29:30",1448985,5.032,234.7,6.034,1.148,8.05,101.5275,3.197,4.439,49.43,0,109.7,13.53,3.96,196.7
"2009-11-26 00:30:00",1448986,4.134,229.3,6.064,1.135,6.304,101.5275,3.197,4.398,49.35,0,109.7,13.53,3.96,191.3
"2009-11-26 00:30:30",1448987,3.776,227.6,4.792,0.948,5.204,101.5275,3.197,4.296,49.23,0,109.7,13.53,3.96,189.6
"2009-11-26 00:31:00",1448988,4.675,233.3,6.343,1.232,7.397,101.5275,3.197,4.367,49.29,0,109.7,13.53,3.96,195.3
"2009-11-26 00:31:30",1448989,3.807,228.8,5.892,1.065,6.275,101.5275,3.197,4.367,49.26,0,109.7,13.53,3.96,190.8
"2009-11-26 00:32:00",1448990,4.993,234.7,5.402,1.085,7.787,101.5275,3.197,4.342,49.24,0,109.7,13.53,3.96,196.7
"2009-11-26 00:32:30",1448991,4.535,231.3,6.446,1.227,7.3,101.5275,3.197,4.457,49.35,0,109.7,13.53,3.96,193.3
"2009-11-26 00:33:00",1448992,4.358,231.2,6.074,1.233,7.073,101.5275,3.197,4.421,49.3,0,109.7,13.53,3.96,193.2
"2009-11-26 00:33:30",1448993,4.057,229,6.206,1.198,6.327,101.5275,3.197,4.296,49.18,0,109.7,13.53,3.96,191.0
"2009-11-26 00:34:00",1448994,4.4,231.1,6.314,1.27,7.222,101.5275,3.197,4.473,49.4,0,109.7,13.53,3.96,193.1
"2009-11-26 00:34:30",1448995,4.215,230.1,6.292,1.236,7.256,101.5275,3.197,4.428,49.33,0,109.7,13.53,3.96,192.1
"2009-11-26 00:35:00",1448996,4.404,230.7,6.511,1.238,6.958,101.5275,3.197,4.34,49.27,0,109.7,13.54,3.96,192.7
"2009-11-26 00:35:30",1448997,4.391,230.9,6.335,1.232,7.342,101.5275,3.197,4.47,49.42,0,109.7,13.54,3.96,192.9
"2009-11-26 00:36:00",1448998,4.479,232.3,6.405,1.171,7.792,101.5275,3.197,4.492,49.38,0,109.7,13.54,3.96,194.3
"2009-11-26 00:36:30",1448999,4.145,230.6,6.41,1.228,7.185,101.5275,3.197,4.415,49.27,0,109.7,13.53,3.96,192.6
"2009-11-26 00:37:00",1449000,4.095,229.1,6.142,1.241,7.167,101.5275,3.197,4.427,49.24,0,109.7,13.53,3.96,191.1
"2009-11-26 00:37:30",1449001,3.894,227.9,6.406,1.254,6.669,101.5275,3.197,4.36,49.18,0,109.7,13.53,3.96,189.9
"2009-11-26 00:38:00",1449002,2.786,222.8,0.49,0.034,4.697,101.5275,3.197,4.298,49.1,0,109.7,13.53,3.96,184.8
"2009-11-26 00:38:30",1449003,3.916,229.5,6.529,1.26,6.996,101.5275,3.197,4.46,49.26,0,109.7,13.53,3.96,191.5
"2009-11-26 00:39:00",1449004,4.64,232.5,5.909,1.081,8.62,101.5275,3.197,4.431,49.2,0,109.7,13.53,3.96,194.5
"2009-11-26 00:39:30",1449005,3.603,225.6,6.321,1.172,6.556,101.5278,3.198,4.397,49.22,0,109.7,13.53,3.96,187.6
"2009-11-26 00:40:00",1449006,4.209,228.8,6.344,1.198,7.674,101.5278,3.198,4.433,49.27,0,109.7,13.53,3.96,190.8
"2009-11-26 00:40:30",1449007,3.13,222.7,5.752,1.025,5.949,101.5278,3.198,4.42,49.27,0,109.7,13.53,3.96,184.7
"2009-11-26 00:41:00",1449008,3.589,224,6.727,1.223,6.597,101.5281,3.198,4.393,49.28,0,109.7,13.53,3.96,186.0
"2009-11-26 00:41:30",1449009,3.877,223.3,6.582,1.269,7.007,101.5289,3.201,4.433,49.3,0,109.7,13.53,3.96,185.3
"2009-11-26 00:42:00",1449010,4.035,225.3,6.824,1.195,7.436,101.5289,3.201,4.46,49.34,0,109.7,13.54,3.96,187.3
"2009-11-26 00:42:30",1449011,3.342,223.3,5.891,1.16,6.696,101.5306,3.205,4.42,49.3,0,109.7,13.54,3.97,185.3
"2009-11-26 00:43:00",1449012,2.93,220.2,4.974,1.003,6.038,101.5321,3.209,4.413,49.32,0,109.7,13.54,3.97,182.2
"2009-11-26 00:43:30",1449013,3.623,223.5,6.715,1.246,6.748,101.5344,3.215,4.384,49.28,0,109.7,13.54,3.98,185.5
"2009-11-26 00:44:00",1449014,3.462,222.5,6.49,1.244,6.614,101.5361,3.219,4.442,49.33,0,109.7,13.54,3.98,184.5
"2009-11-26 00:44:30",1449015,3.284,222.2,5.832,1.17,5.518,101.5367,3.22,4.264,49.16,0,109.7,13.54,3.98,184.2
"2009-11-26 00:45:00",1449016,3.595,226,6.546,1.196,6.4,101.5375,3.223,4.478,49.4,0,109.7,13.54,3.99,188.0
"2009-11-26 00:45:30",1449017,4.087,228.9,6.055,1.244,8.16,101.537,3.221,4.498,49.45,0,109.6,13.54,3.98,190.9
"2009-11-26 00:46:00",1449018,4.211,230.1,6.048,1.217,8.13,101.5378,3.223,4.462,49.41,0,109.7,13.54,3.99,192.1
"2009-11-26 00:46:30",1449019,4.328,232.9,6.001,1.218,8.01,101.5387,3.226,4.519,49.43,0,109.7,13.54,3.99,194.9
"2009-11-26 00:47:00",1449020,3.289,227.2,5.425,1.097,5.311,101.5375,3.223,4.31,49.24,0,109.7,13.54,3.99,189.2
"2009-11-26 00:47:30",1449021,3.542,230.1,6.682,1.19,6.21,101.5393,3.227,4.387,49.35,0,109.7,13.54,3.99,192.1
"2009-11-26 00:48:00",1449022,2.99,227.8,4.661,0.879,5.322,101.5401,3.229,4.386,49.38,0,109.7,13.54,3.99,189.8
"2009-11-26 00:48:30",1449023,4.097,230.9,6.586,1.233,7.91,101.5376,3.223,4.473,49.49,0,109.7,13.54,3.99,192.9
"2009-11-26 00:49:00",1449024,4.025,227.9,6.131,1.141,8.15,101.5387,3.226,4.486,49.54,0,109.7,13.54,3.99,189.9
"2009-11-26 00:49:30",1449025,3.691,223.4,5.79,1.229,8.04,101.5365,3.22,4.512,49.59,0,109.7,13.54,3.98,185.4
"2009-11-26 00:50:00",1449026,2.97,215.1,6.557,1.149,5.705,101.5342,3.214,4.277,49.35,0,109.7,13.54,3.98,177.1
"2009-11-26 00:50:30",1449027,2.367,208.7,5.542,0.64,5.389,101.5328,3.211,4.359,49.43,0,109.7,13.54,3.97,170.7
"2009-11-26 00:51:00",1449028,2.643,205.6,4.897,0.896,5.703,101.5306,3.205,4.403,49.45,0,109.7,13.54,3.97,167.6
"2009-11-26 00:51:30",1449029,2.979,204.3,6.223,1.115,5.418,101.5278,3.198,4.307,49.41,0,109.7,13.54,3.96,166.3
"2009-11-26 00:52:00",1449030,3.639,208.2,6.529,1.206,7.16,101.5255,3.192,4.384,49.45,0,109.7,13.55,3.96,170.2
"2009-11-26 00:52:30",1449031,3.806,210.6,6.322,1.226,8.1,101.5227,3.185,4.501,49.58,0,109.7,13.55,3.95,172.6
"2009-11-26 00:53:00",1449032,3.862,215,6.03,1.218,7.696,101.5173,3.171,4.442,49.56,0,109.7,13.54,3.93,177.0
"2009-11-26 00:53:30",1449033,2.687,208.5,4.422,0.873,4.419,101.5159,3.167,4.302,49.43,0,109.7,13.54,3.93,170.5
"2009-11-26 00:54:00",1449034,3.078,209.4,6.464,1.181,6.271,101.5142,3.163,4.446,49.54,0,109.7,13.54,3.93,171.4
"2009-11-26 00:54:30",1449035,2.913,208.5,4.54,0.945,4.896,101.5142,3.163,4.297,49.39,0,109.7,13.54,3.93,170.5
"2009-11-26 00:55:00",1449036,4.358,214.4,5.791,1.069,7.757,101.5148,3.165,4.357,49.41,0,109.7,13.54,3.93,176.4
"2009-11-26 00:55:30",1449037,4.047,210.4,6.421,1.23,7.51,101.5157,3.167,4.424,49.48,0,109.7,13.54,3.93,172.4
"2009-11-26 00:56:00",1449038,4.303,211.9,5.91,1.162,8.19,101.5171,3.17,4.466,49.5,0,109.7,13.54,3.93,173.9
"2009-11-26 00:56:30",1449039,3.146,206,4.51,0.948,5.076,101.5131,3.16,4.313,49.3,0,109.7,13.54,3.92,168.0
"2009-11-26 00:57:00",1449040,3.909,209.8,6.171,1.221,6.519,101.5165,3.169,4.324,49.29,0,109.7,13.54,3.93,171.8
"2009-11-26 00:57:30",1449041,3.711,208.6,6.215,1.227,6.209,101.5168,3.17,4.336,49.31,0,109.7,13.54,3.93,170.6
"2009-11-26 00:58:00",1449042,3.793,208.3,6.68,1.243,6.762,101.5185,3.174,4.418,49.39,0,109.7,13.55,3.94,170.3
"2009-11-26 00:58:30",1449043,4.626,212,6.048,1.135,7.998,101.5185,3.174,4.4,49.36,0,109.7,13.55,3.94,174.0
"2009-11-26 00:59:00",1449044,4.811,211,6.068,1.114,8.13,101.5185,3.174,4.418,49.37,0,109.7,13.55,3.94,173.0
"2009-11-26 00:59:30",1449045,4.139,209,6.132,1.237,6.388,101.5157,3.167,4.275,49.19,0,109.7,13.55,3.93,171.0
"2009-11-26 01:00:00",1449046,4.513,212.7,6.597,1.251,6.831,101.5185,3.174,4.359,49.23,0,109.7,13.55,3.94,174.7
"2009-11-26 01:00:30",1449047,4.59,213.4,6.246,1.226,6.831,101.5205,3.179,4.318,49.14,0,109.7,13.55,3.94,175.4
"2009-11-26 01:01:00",1449048,4.001,210.6,5.771,1.127,5.876,101.516,3.168,4.353,49.09,0,109.7,13.55,3.93,172.6
"2009-11-26 01:01:30",1449049,4.84,214.9,6.381,1.25,7.558,101.5155,3.166,4.394,49.17,0,109.7,13.55,3.93,176.9
"2009-11-26 01:02:00",1449050,4.92,217.1,6.312,1.23,7.701,101.5104,3.153,4.382,49.22,0,109.7,13.55,3.92,179.1
"2009-11-26 01:02:30",1449051,4.659,216.9,6.628,1.182,7.356,101.5087,3.149,4.348,49.27,0,109.7,13.55,3.91,178.9
"2009-11-26 01:03:00",1449052,4.448,215.5,6.765,1.273,6.68,101.5052,3.14,4.182,49.21,0,109.7,13.55,3.90,177.5
"2009-11-26 01:03:30",1449053,4.325,215.2,6.484,1.251,6.853,101.5055,3.141,4.39,49.46,0,109.7,13.55,3.90,177.2
"2009-11-26 01:04:00",1449054,4.49,214.5,6.584,1.235,6.601,101.5053,3.14,4.265,49.38,0,109.7,13.55,3.90,176.5
"2009-11-26 01:04:30",1449055,4.319,214.3,6.298,1.199,6.886,101.5061,3.142,4.315,49.47,0,109.7,13.55,3.91,176.3
"2009-11-26 01:05:00",1449056,4.405,214.3,6.235,1.252,7.027,101.5058,3.142,4.369,49.62,0,109.7,13.55,3.90,176.3
"2009-11-26 01:05:30",1449057,4.534,215.8,6.543,1.195,8.09,101.507,3.145,4.367,49.67,0,109.7,13.55,3.91,177.8
"2009-11-26 01:06:00",1449058,4.657,219,5.828,1.215,8.42,101.5061,3.142,4.374,49.65,0,109.7,13.56,3.91,181.0
"2009-11-26 01:06:30",1449059,4.878,220.2,5.963,1.115,7.846,101.5058,3.142,4.328,49.56,0,109.7,13.55,3.90,182.2
"2009-11-26 01:07:00",1449060,3.665,215.8,5.786,1.075,5.728,101.5061,3.142,4.279,49.49,0,109.7,13.55,3.91,177.8
"2009-11-26 01:07:30",1449061,4.153,219.4,6.307,1.229,7.107,101.505,3.139,4.365,49.5,0,109.7,13.56,3.90,181.4
"2009-11-26 01:08:00",1449062,4.031,217.9,6.468,1.172,6.356,101.5067,3.144,4.259,49.38,0,109.7,13.56,3.91,179.9
"2009-11-26 01:08:30",1449063,4.204,219.7,6.154,1.228,7.432,101.5064,3.143,4.413,49.48,0,109.7,13.56,3.91,181.7
"2009-11-26 01:09:00",1449064,4.681,219.4,5.971,1.242,8.01,101.5058,3.142,4.425,49.53,0,109.7,13.56,3.90,181.4
"2009-11-26 01:09:30",1449065,4.761,219.8,6.443,1.258,7.343,101.5104,3.153,4.298,49.39,0,109.7,13.55,3.92,181.8
"2009-11-26 01:10:00",1449066,4.336,217.8,6.745,1.271,6.687,101.5129,3.16,4.372,49.48,0,109.7,13.55,3.92,179.8
"2009-11-26 01:10:30",1449067,3.736,215.2,6.179,1.07,5.951,101.516,3.168,4.319,49.5,0,109.7,13.55,3.93,177.2
"2009-11-26 01:11:00",1449068,4.255,219.7,6.226,1.226,6.72,101.518,3.173,4.263,49.41,0,109.7,13.54,3.94,181.7
"2009-11-26 01:11:30",1449069,4.42,220.9,7.008,1.244,7.153,101.522,3.183,4.302,49.46,0,109.7,13.54,3.95,182.9
"2009-11-26 01:12:00",1449070,5.038,226.5,5.021,1.161,8.38,101.5211,3.181,4.409,49.61,0,109.7,13.54,3.94,188.5
"2009-11-26 01:12:30",1449071,5.004,227.2,6.175,1.147,8,101.5228,3.185,4.357,49.54,0,109.7,13.55,3.95,189.2
"2009-11-26 01:13:00",1449072,4.603,226.2,5.842,1.22,7.402,101.5231,3.186,4.33,49.54,0,109.7,13.54,3.95,188.2
"2009-11-26 01:13:30",1449073,4.426,225.6,6.513,1.224,7.391,101.5228,3.185,4.429,49.63,0,109.7,13.54,3.95,187.6
"2009-11-26 01:14:00",1449074,4.27,219.8,6.554,1.187,6.258,101.5246,3.189,4.229,49.39,0,109.7,13.55,3.95,181.8
"2009-11-26 01:14:30",1449075,4.187,220.7,6.774,1.165,6.605,101.5246,3.189,4.326,49.43,0,109.7,13.55,3.95,182.7
"2009-11-26 01:15:00",1449076,5.172,224.7,6.445,1.111,8.57,101.5243,3.189,4.392,49.51,0,109.7,13.56,3.95,186.7
"2009-11-26 01:15:30",1449077,4.884,224.5,5.994,1.217,8.57,101.5251,3.191,4.497,49.61,0,109.7,13.56,3.95,186.5
"2009-11-26 01:16:00",1449078,4.686,221.1,6.454,1.238,7.108,101.5246,3.189,4.331,49.44,0,109.7,13.56,3.95,183.1
"2009-11-26 01:16:30",1449079,4.996,222.2,5.996,1.174,7.817,101.5251,3.191,4.409,49.44,0,109.7,13.56,3.95,184.2
"2009-11-26 01:17:00",1449080,3.618,214.1,3.457,0.741,4.975,101.5274,3.197,4.305,49.24,0,109.7,13.56,3.96,176.1
"2009-11-26 01:17:30",1449081,3.809,215.7,4.596,0.943,5.39,101.5274,3.197,4.254,49.14,0,109.7,13.56,3.96,177.7
"2009-11-26 01:18:00",1449082,4.939,222.2,5.631,1.183,8.33,101.5274,3.197,4.481,49.33,0,109.7,13.56,3.96,184.2
"2009-11-26 01:18:30",1449083,5.161,224.8,4.578,1.081,9.19,101.5286,3.2,4.523,49.37,0,109.7,13.56,3.96,186.8
"2009-11-26 01:19:00",1449084,4.864,224,6.153,1.202,7.665,101.53,3.203,4.393,49.23,0,109.7,13.56,3.97,186.0
"2009-11-26 01:19:30",1449085,4.38,221.8,6.723,1.223,6.535,101.5356,3.218,4.336,49.17,0,109.7,13.56,3.98,183.8
"2009-11-26 01:20:00",1449086,4.308,220.9,6.304,1.185,6.581,101.5393,3.227,4.381,49.21,0,109.7,13.56,3.99,182.9
"2009-11-26 01:20:30",1449087,3.757,217.5,5.188,1.024,5.963,101.5444,3.24,4.399,49.25,0,109.7,13.56,4.00,179.5
"2009-11-26 01:21:00",1449088,4.813,222.2,6.175,1.213,8.09,101.5475,3.248,4.484,49.27,0,109.6,13.56,4.01,184.2
"2009-11-26 01:21:30",1449089,5.011,223.2,5.886,1.147,8.17,101.5515,3.258,4.442,49.12,0,109.7,13.56,4.02,185.2
"2009-11-26 01:22:00",1449090,4.624,221.9,6.559,1.209,7.995,101.5532,3.263,4.513,49.12,0,109.7,13.56,4.03,183.9
"2009-11-26 01:22:30",1449091,4.932,224.3,5.571,1.1,8.36,101.5583,3.276,4.468,49.01,0,109.7,13.56,4.04,186.3
"2009-11-26 01:23:00",1449092,3.469,214.8,3.552,0.765,4.812,101.5611,3.283,4.298,48.84,0,109.7,13.56,4.05,176.8
"2009-11-26 01:23:30",1449093,3.702,215.2,5.483,1.02,5.833,101.5608,3.282,4.419,48.93,0,109.7,13.56,4.05,177.2
"2009-11-26 01:24:00",1449094,4.783,220.5,6.112,1.199,7.89,101.5614,3.283,4.427,48.83,0,109.7,13.56,4.05,182.5
"2009-11-26 01:24:30",1449095,4.944,220.4,5.771,1.147,8.31,101.562,3.285,4.432,48.78,0,109.7,13.56,4.05,182.4
"2009-11-26 01:25:00",1449096,5.492,223.7,1.961,0.759,9.57,101.5617,3.284,4.526,48.84,0,109.7,13.56,4.05,185.7
"2009-11-26 01:25:30",1449097,4.591,218.3,6.579,1.23,7.314,101.562,3.285,4.429,48.68,0,109.7,13.55,4.05,180.3
"2009-11-26 01:26:00",1449098,4.21,216.6,5.764,1.158,6.154,101.562,3.285,4.41,48.6,0,109.7,13.55,4.05,178.6
"2009-11-26 01:26:30",1449099,3.329,212.4,0.492,0.031,4.533,101.562,3.285,4.283,48.44,0,109.7,13.58,4.05,174.4
"2009-11-26 01:27:00",1449100,4.404,218.9,6.685,1.223,7.183,101.562,3.285,4.531,48.65,0,109.7,13.55,4.05,180.9
"2009-11-26 01:27:30",1449101,5.372,223.7,5.356,1.02,8.8,101.562,3.285,4.533,48.65,0,109.7,13.55,4.05,185.7
"2009-11-26 01:28:00",1449102,5.081,222.5,6.181,1.151,8.67,101.562,3.285,4.556,48.64,0,109.7,13.55,4.05,184.5
"2009-11-26 01:28:30",1449103,5.055,223.4,5.495,1.142,8.19,101.562,3.285,4.539,48.64,0,109.7,13.55,4.05,185.4
"2009-11-26 01:29:00",1449104,4.241,218.3,6.621,1.192,6.434,101.562,3.285,4.361,48.47,0,109.7,13.55,4.05,180.3
"2009-11-26 01:29:30",1449105,3.314,212.2,0.498,0.037,4.648,101.562,3.285,4.296,48.41,0,109.7,13.58,4.05,174.2
"2009-11-26 01:30:00",1449106,4.488,218.3,6.315,1.24,6.947,101.562,3.285,4.47,48.57,0,109.7,13.55,4.05,180.3
"2009-11-26 01:30:30",1449107,4.371,217.4,6.082,1.225,7.173,101.5614,3.283,4.548,48.65,0,109.7,13.56,4.05,179.4
"2009-11-26 01:31:00",1449108,5.296,222.6,4.99,1.019,8.95,101.5617,3.284,4.556,48.59,0,109.6,13.56,4.05,184.6
"2009-11-26 01:31:30",1449109,5.241,222.5,5.129,1.009,8.93,101.562,3.285,4.547,48.57,0,109.7,13.56,4.05,184.5
"2009-11-26 01:32:00",1449110,4.306,216.9,6.357,1.212,6.639,101.5614,3.283,4.455,48.5,0,109.7,13.56,4.05,178.9
"2009-11-26 01:32:30",1449111,3.834,212.8,5.099,1.069,5.579,101.562,3.285,4.319,48.36,0,109.7,13.56,4.05,174.8
"2009-11-26 01:33:00",1449112,3.486,208.7,3.654,0.802,5.091,101.562,3.285,4.404,48.34,0,109.7,13.56,4.05,170.7
"2009-11-26 01:33:30",1449113,4.696,216,5.914,1.214,8.2,101.562,3.285,4.491,48.27,0,109.7,13.56,4.05,178.0
"2009-11-26 01:34:00",1449114,5.015,216.2,6.01,1.123,8.79,101.562,3.285,4.579,48.24,0,109.7,13.56,4.05,178.2
"2009-11-26 01:34:30",1449115,5.53,220.1,3.533,0.752,9.32,101.562,3.285,4.621,48.22,0,109.7,13.56,4.05,182.1
"2009-11-26 01:35:00",1449116,3.6,209.1,4.857,0.847,5.752,101.562,3.285,4.458,48.1,0,109.7,13.56,4.05,171.1
"2009-11-26 01:35:30",1449117,3.674,209,5.177,0.99,5.419,101.5622,3.286,4.339,47.87,0,109.7,13.56,4.05,171.0
"2009-11-26 01:36:00",1449118,4.337,210.1,7.03,1.237,6.675,101.5625,3.286,4.393,47.87,0,109.7,13.56,4.05,172.1
"2009-11-26 01:36:30",1449119,4.254,208.1,6.221,1.214,7.102,101.5625,3.286,4.509,47.87,0,109.7,13.56,4.05,170.1
"2009-11-26 01:37:00",1449120,4.658,210.1,6.143,1.23,8.45,101.5637,3.289,4.581,47.89,0,109.7,13.56,4.05,172.1
"2009-11-26 01:37:30",1449121,5.25,213.5,4.762,0.872,9.16,101.5637,3.289,4.618,47.92,0,109.7,13.56,4.05,175.5
"2009-11-26 01:38:00",1449122,4.404,208.6,6.058,1.219,7.646,101.5659,3.295,4.525,47.84,0,109.7,13.56,4.06,170.6
"2009-11-26 01:38:30",1449123,3.106,200.7,1.198,0.039,4.672,101.5679,3.3,4.377,47.69,0,109.7,13.6,4.06,162.7
"2009-11-26 01:39:00",1449124,3.768,201.5,6.189,1.117,5.401,101.5688,3.302,4.351,47.53,0,109.7,13.56,4.07,163.5
"2009-11-26 01:39:30",1449125,4.162,200.8,7.144,1.224,7.06,101.5741,3.316,4.515,47.63,0,109.7,13.56,4.08,162.8
"2009-11-26 01:40:00",1449126,4.91,203.6,6.556,1.206,8.13,101.5795,3.33,4.545,47.57,0,109.7,13.56,4.09,165.6
"2009-11-26 01:40:30",1449127,5.303,205.3,5.368,0.967,8.74,101.5821,3.336,4.58,47.55,0,109.7,13.56,4.10,167.3
"2009-11-26 01:41:00",1449128,5.008,201.6,6.017,1.174,8.17,101.584,3.341,4.593,47.47,0,109.7,13.56,4.10,163.6
"2009-11-26 01:41:30",1449129,4.409,201.5,5.772,1.236,6.828,101.5863,3.347,4.515,47.35,0,109.7,13.56,4.11,163.5
"2009-11-26 01:42:00",1449130,3.491,194.2,0.867,0.064,4.595,101.5883,3.352,4.371,47.2,0,109.7,13.59,4.12,156.2
"2009-11-26 01:42:30",1449131,4.756,198.8,6.339,1.244,6.633,101.5891,3.354,4.557,47.39,0,109.7,13.56,4.12,160.8
"2009-11-26 01:43:00",1449132,5.378,200.3,6.149,1.176,8.13,101.5934,3.365,4.621,47.44,0,109.7,13.56,4.13,162.3
"2009-11-26 01:43:30",1449133,6.047,202.7,3.917,0.883,8.99,101.5951,3.369,4.583,47.39,0,109.7,13.56,4.13,164.7
"2009-11-26 01:44:00",1449134,5.49,199.2,5.64,1.194,7.978,101.5959,3.372,4.573,47.29,0,109.7,13.56,4.14,161.2
"2009-11-26 01:44:30",1449135,5.125,198.5,6.049,1.223,7.421,101.5959,3.372,4.617,47.2,0,109.7,13.56,4.14,160.5
"2009-11-26 01:45:00",1449136,4.013,194.3,3.921,0.505,5.402,101.5959,3.372,4.463,47,0,109.7,13.56,4.14,156.3
"2009-11-26 01:45:30",1449137,5.612,201.8,6.057,1.101,7.496,101.5959,3.372,4.523,46.96,0,109.7,13.56,4.14,163.8
"2009-11-26 01:46:00",1449138,4.897,199.4,6.677,1.218,7.001,101.5959,3.372,4.593,46.91,0,109.7,13.56,4.14,161.4
"2009-11-26 01:46:30",1449139,5.195,198.9,6.621,1.233,7.7,101.5959,3.372,4.594,46.89,0,109.7,13.56,4.14,160.9
"2009-11-26 01:47:00",1449140,5.213,198.2,6.503,1.211,7.759,101.5959,3.372,4.641,46.86,0,109.7,13.56,4.14,160.2
"2009-11-26 01:47:30",1449141,4.992,197.9,6.759,1.237,7.756,101.5959,3.372,4.604,46.8,0,109.6,13.56,4.14,159.9
"2009-11-26 01:48:00",1449142,5.474,194,6.535,1.207,7.07,101.5959,3.372,4.401,46.5,0,109.7,13.56,4.14,156.0